Regional Weather Roundup
Issued by NWS

Home | Current Version | Previous Version | Graphics & Text | Print | Product List | Glossary On
Versions: 1 2 3 4 5 6 7 8 9 10 11 12 13 14 15 16 17 18 19 20 21 22 23 24 25 26 27 28 29 30 31 32 33 34 35 36 37 38 39 40 41 42 43 44 45 46 47 48 49 50
000
ASUS45 KCYS 200310
RWRWY

WYOMING REGIONAL WEATHER ROUNDUP
NATIONAL WEATHER SERVICE CHEYENNE WY
800 PM MST WED NOV 19 2014

NOTE:  "FAIR" INDICATES FEW OR NO CLOUDS BELOW 12,000 FEET
WITH NO SIGNIFICANT WEATHER AND/OR OBSTRUCTIONS TO VISIBILITY.

WYZ001-200400-
YELLOWSTONE NATIONAL PARK

CITY           SKY/WX    TMP DP  RH WIND       PRES   REMARKS
LK YELLOWSTONE   N/A     15  11  83 NW3       30.11R
W YELLOWSTONE  NOT AVBL

$$
WYZ002>013-054>058-071-098>099-200400-
NORTHERN WYOMING

CITY           SKY/WX    TMP DP  RH WIND       PRES   REMARKS
JACKSON        CLEAR     10  10 100 CALM      30.11S
CODY           CLEAR     16  16 100 CALM      29.96S
GREYBULL       PTCLDY     7   5  91 SE5       30.05R WCI  -2
WORLAND        PTCLDY     5   3  91 CALM      30.03S
SHERIDAN       PTCLDY    17  12  80 CALM      30.00F
BUFFALO        PTCLDY    24  13  62 NW5       29.99R WCI  18
GILLETTE       PTCLDY    15  11  83 S6        30.00S WCI   6
HULETT         FAIR      27  19  74 SW9       30.00F WCI  17
NEWCASTLE        N/A    N/A N/A N/A MISG        N/A

$$
WYZ014>020-022>026-101>103-200400-
CENTRAL WYOMING

CITY           SKY/WX    TMP DP  RH WIND       PRES   REMARKS
BIG PINEY      PTCLDY    22  13  68 NW9       30.09S WCI  12
PINEDALE       CLEAR     19  12  73 W13       30.08S WCI   7
DUBOIS         FAIR      28  12  50 NW16      30.01S WCI  17
LANDER         PTCLDY    23  15  71 CALM      29.99S
RIVERTON       PTCLDY    21  13  71 SW5       30.01S WCI  15
CASPER         CLEAR     19  14  81 W9        29.99F WCI   8
DOUGLAS        CLEAR     21  17  84 E3        30.01S

$$
WYZ021-027>030-104>119-200400-
SOUTHERN WYOMING

CITY           SKY/WX    TMP DP  RH WIND       PRES   REMARKS
EVANSTON       MOCLDY    34  12  40 SW6       30.11S WCI  29
KEMMERER       CLOUDY    30  18  59 NW7       30.10S WCI  23
FORT BRIDGER   FAIR      33  17  52 W12       30.12F WCI  24
ROCK SPRINGS   PTCLDY    31  13  47 SW10      30.09R WCI  22
DIXON          CLOUDY    34  16  48 CALM      30.14R
RAWLINS        CLEAR     32  12  43 SW8       30.05R WCI  25
SARATOGA       FAIR      28  10  47 E5        30.07R WCI  23
LARAMIE        CLEAR     25  10  53 W14       30.01S WCI  13
CHEYENNE       CLEAR     27  15  61 E5        30.00R WCI  22
TORRINGTON     CLEAR     27  18  69 CALM      30.02S
PINE BLUFFS    FAIR      23  16  74 W10       30.02S WCI  12

$$


USA.gov is the U.S. government's official web portal to all federal, state and local government web resources and services.